Staples, MN

6:04 AM CST on December 13, 2017 (GMT -0600)
Staples Municipal

Weather History for KSAZ - August, 2013

Change the Weather History Date:

Wednesday, August 21, 2013

  Actual Average Record
Temperature  
Mean Temperature 76 °F -  
Max Temperature 87 °F 76 °F 87 °F (2013)
Min Temperature 66 °F 54 °F 33 °F (2004)
Cooling Degree Days 12    
Growing Degree Days 26 (Base 50)    
Moisture  
Dew Point 61 °F    
Average Humidity 65    
Maximum Humidity 100    
Minimum Humidity 23    
Precipitation  
Precipitation 0.00 in - - ()
Sea Level Pressure  
Sea Level Pressure 29.93 in    
Wind  
Wind Speed 6 mph (NNE)    
Max Wind Speed 15 mph    
Max Gust Speed 17 mph    
Visibility 8 miles    
Events Fog    
Averages and records for this station are not official NWS values.
T = Trace of Precipitation, MM = Missing Value Source: NWS Daily Summary

Daily Weather History Graph

Daily Weather History Graph

Search for Another Location

Airport or City:

Trip Planner

Search our weather history database for the weather conditions in past years. The results will help you decide how hot, cold, wet, or windy it might be!

Date:

Astronomy

Aug. 21, 2013 Rise Set
Actual Time 6:25 AM CDT 8:17 PM CDT
Civil Twilight 5:53 AM CDT 8:49 PM CDT
Nautical Twilight 5:14 AM CDT 9:29 PM CDT
Astronomical Twilight 4:30 AM CDT 10:12 PM CDT
Moon 8:19 PM CDT (8/21) 7:12 AM CDT (8/21)
Length of Visible Light 14h 56m
Length of Day
13h 51m
Waxing Gibbous, 99% of the Moon is Illuminated
Aug 21
Waxing Gibbous
Aug 28
Last Quarter
Sep 5
New
Sep 12
First Quarter
Sep 19
Full

Hourly Weather History & Observations

Time (CDT) Temp. Heat Index Dew Point Humidity Pressure Visibility Wind Dir Wind Speed Gust Speed Precip Events Conditions
12:13 AM 73.4 °F - 71.6 °F 94% 29.80 in 7.0 mi South 10.4 mph - N/A   Clear
12:33 AM 73.4 °F - 71.6 °F 94% 29.80 in 7.0 mi South 9.2 mph - N/A   Clear
12:53 AM 73.4 °F - 71.6 °F 94% 29.81 in 7.0 mi South 9.2 mph - N/A   Clear
1:13 AM 73.4 °F - 69.8 °F 88% 29.81 in 7.0 mi South 9.2 mph - N/A   Clear
1:33 AM 73.4 °F - 69.8 °F 88% 29.82 in 5.0 mi South 6.9 mph - N/A   Clear
1:53 AM 73.4 °F - 71.6 °F 94% 29.82 in 5.0 mi SSW 3.5 mph - N/A   Clear
2:13 AM 73.4 °F - 71.6 °F 94% 29.84 in 7.0 mi West 5.8 mph - N/A   Clear
2:33 AM 73.4 °F - 71.6 °F 94% 29.83 in 7.0 mi SW 3.5 mph - N/A   Clear
2:53 AM 73.4 °F - 71.6 °F 94% 29.82 in 5.0 mi South 3.5 mph - N/A   Clear
3:13 AM 71.6 °F - 71.6 °F 100% 29.82 in 5.0 mi Calm Calm - N/A   Clear
3:33 AM 73.4 °F - 71.6 °F 94% 29.82 in 5.0 mi Calm Calm - N/A   Scattered Clouds
3:53 AM 71.6 °F - 69.8 °F 94% 29.81 in 5.0 mi South 4.6 mph - N/A   Scattered Clouds
4:13 AM 71.6 °F - 69.8 °F 94% 29.81 in 4.0 mi SSW 3.5 mph - N/A   Clear
4:33 AM 71.6 °F - 69.8 °F 94% 29.81 in 3.0 mi South 4.6 mph - N/A   Clear
4:53 AM 71.6 °F - 69.8 °F 94% 29.81 in 3.0 mi Calm Calm - N/A   Mist
5:13 AM 69.8 °F - 69.8 °F 100% 29.82 in 2.0 mi Calm Calm - N/A   Mist
5:33 AM 71.6 °F - 69.8 °F 94% 29.82 in 2.5 mi Calm Calm - N/A   Mist
5:54 AM 71.6 °F - 69.8 °F 94% 29.83 in 2.5 mi Calm Calm - N/A   Mist
6:13 AM 69.8 °F - 69.8 °F 100% 29.84 in 2.0 mi Calm Calm - N/A   Mist
6:33 AM 69.8 °F - 68.0 °F 94% 29.85 in 0.5 mi Calm Calm - N/A Fog Fog
6:54 AM 68.0 °F - 66.2 °F 94% 29.85 in 0.2 mi Calm Calm - N/A Fog Fog
7:13 AM 69.8 °F - 68.0 °F 94% 29.85 in 0.5 mi Calm Calm - N/A Fog Fog
7:33 AM 69.8 °F - 69.8 °F 100% 29.86 in 0.2 mi Calm Calm - N/A Fog Fog
7:53 AM 69.8 °F - 69.8 °F 100% 29.86 in 0.2 mi Calm Calm - N/A Fog Fog
8:13 AM 71.6 °F - 69.8 °F 94% 29.87 in 0.2 mi NNW 5.8 mph - N/A Fog Fog
8:33 AM 71.6 °F - 69.8 °F 94% 29.87 in 1.5 mi North 10.4 mph - N/A   Overcast
8:53 AM 69.8 °F - 69.8 °F 100% 29.88 in 7.0 mi North 10.4 mph - N/A   Mostly Cloudy
9:13 AM 73.4 °F - 66.2 °F 78% 29.89 in 10.0 mi North 11.5 mph - N/A   Scattered Clouds
9:33 AM 73.4 °F - 64.4 °F 73% 29.90 in 10.0 mi North 15.0 mph - N/A   Clear
9:53 AM 75.2 °F - 64.4 °F 69% 29.91 in 10.0 mi North 10.4 mph - N/A   Clear
10:13 AM 75.2 °F - 64.4 °F 69% 29.92 in 10.0 mi North 10.4 mph - N/A   Clear
10:34 AM 78.8 °F - 62.6 °F 57% 29.92 in 10.0 mi North 8.1 mph - N/A   Clear
10:53 AM 78.8 °F - 60.8 °F 54% 29.93 in 10.0 mi North 12.7 mph - N/A   Clear
11:13 AM 78.8 °F - 60.8 °F 54% 29.94 in 10.0 mi North 9.2 mph - N/A   Clear
11:34 AM 80.6 °F 81.5 °F 60.8 °F 51% 29.94 in 10.0 mi North 6.9 mph - N/A   Clear
11:53 AM 80.6 °F 81.5 °F 60.8 °F 51% 29.94 in 10.0 mi North 10.4 mph - N/A   Clear
12:13 PM 80.6 °F 81.5 °F 60.8 °F 51% 29.94 in 10.0 mi North 10.4 mph - N/A   Clear
12:34 PM 82.4 °F 82.0 °F 57.2 °F 42% 29.95 in 10.0 mi North 10.4 mph - N/A   Clear
12:53 PM 82.4 °F 82.5 °F 59.0 °F 45% 29.95 in 10.0 mi North 8.1 mph - N/A   Clear
1:13 PM 84.2 °F 83.0 °F 55.4 °F 37% 29.96 in 10.0 mi North 11.5 mph - N/A   Clear
1:34 PM 84.2 °F 83.0 °F 55.4 °F 37% 29.97 in 10.0 mi North 11.5 mph 17.3 mph N/A   Clear
1:53 PM 84.2 °F 82.8 °F 53.6 °F 35% 29.98 in 10.0 mi North 13.8 mph - N/A   Clear
2:13 PM 84.2 °F - 50.0 °F 30% 29.98 in 10.0 mi North 12.7 mph 16.1 mph N/A   Clear
2:33 PM 84.2 °F - 51.8 °F 33% 29.98 in 10.0 mi North 10.4 mph - N/A   Clear
2:54 PM 84.2 °F - 51.8 °F 33% 29.98 in 10.0 mi North 8.1 mph - N/A   Clear
3:13 PM 84.2 °F - 48.2 °F 29% 29.98 in 10.0 mi NE 9.2 mph - N/A   Clear
3:33 PM 87.8 °F - 46.4 °F 24% 29.98 in 10.0 mi North 5.8 mph - N/A   Clear
3:53 PM 86.0 °F - 48.2 °F 27% 29.98 in 10.0 mi NE 8.1 mph - N/A   Clear
4:13 PM 86.0 °F - 44.6 °F 23% 29.98 in 10.0 mi NNE 9.2 mph - N/A   Clear
4:33 PM 86.0 °F - 46.4 °F 25% 29.98 in 10.0 mi NNE 6.9 mph - N/A   Clear
4:53 PM 84.2 °F - 48.2 °F 29% 29.98 in 10.0 mi ENE 6.9 mph - N/A   Clear
5:13 PM 84.2 °F - 48.2 °F 29% 29.98 in 10.0 mi Calm Calm - N/A   Clear
5:33 PM 84.2 °F - 50.0 °F 30% 29.99 in 10.0 mi NE 5.8 mph - N/A   Clear
5:53 PM 84.2 °F - 50.0 °F 30% 29.99 in 10.0 mi ENE 3.5 mph - N/A   Clear
6:13 PM 84.2 °F - 51.8 °F 33% 29.99 in 10.0 mi NE 6.9 mph - N/A   Clear
6:33 PM 82.4 °F - 51.8 °F 35% 30.00 in 10.0 mi ENE 3.5 mph - N/A   Clear
6:53 PM 82.4 °F 81.4 °F 53.6 °F 37% 30.00 in 10.0 mi ENE 3.5 mph - N/A   Clear
7:13 PM 80.6 °F 80.5 °F 55.4 °F 42% 30.00 in 10.0 mi NE 4.6 mph - N/A   Clear
7:33 PM 80.6 °F 80.5 °F 55.4 °F 42% 30.02 in 10.0 mi NNE 4.6 mph - N/A   Clear
7:53 PM 78.8 °F - 55.4 °F 44% 30.02 in 10.0 mi NNE 4.6 mph - N/A   Clear
8:13 PM 77.0 °F - 55.4 °F 47% 30.02 in 10.0 mi Calm Calm - N/A   Clear
8:33 PM 75.2 °F - 55.4 °F 50% 30.03 in 10.0 mi Calm Calm - N/A   Clear
8:53 PM 69.8 °F - 59.0 °F 68% 30.04 in 10.0 mi Calm Calm - N/A   Clear
9:13 PM 69.8 °F - 57.2 °F 64% 30.05 in 10.0 mi Calm Calm - N/A   Clear
9:33 PM 69.8 °F - 57.2 °F 64% 30.05 in 10.0 mi Calm Calm - N/A   Clear
9:53 PM 68.0 °F - 57.2 °F 68% 30.06 in 10.0 mi North 3.5 mph - N/A   Clear
10:13 PM 69.8 °F - 55.4 °F 60% 30.06 in 10.0 mi North 6.9 mph - N/A   Clear
10:33 PM 69.8 °F - 55.4 °F 60% 30.06 in 10.0 mi Calm Calm - N/A   Clear
10:53 PM 69.8 °F - 55.4 °F 60% 30.07 in 10.0 mi Calm Calm - N/A   Clear
11:13 PM 68.0 °F - 55.4 °F 64% 30.07 in 10.0 mi NNE 3.5 mph - N/A   Clear
11:33 PM 66.2 °F - 55.4 °F 68% 30.07 in 10.0 mi North 4.6 mph - N/A   Clear
11:53 PM 66.2 °F - 53.6 °F 64% 30.07 in 10.0 mi North 8.1 mph - N/A   Clear